Location: Belmont
(13.0833°N, 59.6000°W)
Time: 06:30:04
(UTC+00:00)

Cosmos 2333 Rocket - Pass Details

Date: 17 September 2019
Orbit: 840 x 862 km, 70.8° (Epoch: 21 October)

Event Time Altitude Azimuth Distance (km) Brightness Sun altitude
Rises 23:16:26 0° 5° (N) 3,414 5.4 -19.8°
Reaches altitude 10° 23:19:27 10° 21° (NNE) 2,482 4.5 -20.5°
Enters shadow 23:21:22 17° 38° (NE) 2,025 3.9 -21.0°
